Flag for Germany Weather past 2 weeks in Biberach an der Riss, Baden-Württemberg, Germany

Now
46 °F

Broken clouds.


Feels Like: 39 °F
Forecast: 45 / 49 °F
Wind: 17 mph from Southwest

Location: Laupheim Airport

Current Time: Mar 29, 2015 at 9:21:42 AM

Latest Report: Mar 29, 2015 at 8:20 AM


Visibility: N/A

Pressure: 29.89 "Hg

Humidity: 87%

Dew point: 43 °F

Location of Biberach an der RissLocation

Historic Weather in Biberach an der Riss — Graph

°F

Biberach an der Riss temperature yesterday

Maximum temperature yesterday: 54 °F (at 3:20 PM)
Minimum temperature yesterday: 32 °F (at 4:20 AM)
Average temperature yesterday: 43 °F

Past Weeks' High & Low Weather Summary

 TemperatureHumidityPressure
High61 °F (Mar 18, 2:20 PM)100% (Mar 15, 4:20 AM)30.24 "Hg (Mar 15, 4:20 AM)
Low28 °F (Mar 15, 4:20 AM)31% (Mar 20, 4:20 PM)29.53 "Hg (Mar 25, 2:20 PM)
Average42 °F74%30.03 "Hg
* Reported Mar 14 6:20 AM — Mar 29 7:20 AM, Biberach an der Riss, Weather by CustomWeather, © 2015

Note: Actual official high and low records may vary slightly from our data, if they occured in-between our weather recording intervals... More about our weather records

Advertising

Biberach an der Riss weather history for previous 24 hours

 ConditionsComfort  
Time TempWeatherWind HumidityBarometerVisibility
7:20 AM
Sun, Mar 29
46 °FPartly cloudy.17 mph82%29.92 "HgN/A
6:20 AM46 °FPassing clouds.14 mph87%29.95 "HgN/A
5:20 AM45 °FPartly cloudy.14 mph87%29.95 "HgN/A
4:20 AM45 °FPassing clouds.10 mph93%29.98 "HgN/A
3:20 AM45 °FPassing clouds.12 mph93%30.01 "HgN/A
1:20 AM45 °FPassing clouds.14 mph87%30.01 "HgN/A
12:20 AM45 °FPassing clouds.13 mph87%30.01 "HgN/A
11:20 PM
Sat, Mar 28
43 °FPassing clouds.12 mph93%30.04 "HgN/A
10:20 PM43 °FLight rain. Passing clouds.12 mph93%30.04 "Hg5 mi
9:20 PM45 °FPartly cloudy.13 mph81%30.04 "HgN/A
8:20 PM46 °FLight rain. Passing clouds.20 mph71%30.07 "HgN/A
7:20 PM52 °FOvercast.15 mph47%30.04 "HgN/A
6:20 PM52 °FOvercast.13 mph47%30.04 "HgN/A
5:20 PM54 °FPartly sunny.12 mph44%30.04 "HgN/A
4:20 PM54 °FPartly sunny.10 mph41%30.04 "HgN/A
3:20 PM54 °FScattered clouds.9 mph41%30.04 "HgN/A
2:20 PM52 °FScattered clouds.12 mph44%30.07 "HgN/A
1:20 PM52 °FPassing clouds.13 mph44%30.09 "HgN/A
12:20 PM50 °FPassing clouds.10 mph47%30.12 "HgN/A
11:20 AM46 °FPassing clouds.12 mph53%30.15 "HgN/A
10:20 AM45 °FPassing clouds.5 mph57%30.18 "HgN/A
9:20 AM41 °FScattered clouds.2 mph66%30.21 "HgN/A
Weather by CustomWeather, © 2015

See weather overviewHow to use our weather pages